KC5JIM Weather Reports


Display with metric or nautical units.
time (UTC)temp
F
wind
direction
speed
MPH
gust
MPH
rain 1hr
in
rain 24hr
in
rain mn
in
humidity
%
barometer
mb
20260905044813 85 31 0.0 4.0 0.00 0.00 0.00 49 1009.1
20260905044310 85 33 2.0 6.0 0.00 0.00 0.00 49 1008.8
20260905044025 85 57 3.0 4.0 0.00 0.00 0.00 49 1009.0
20260905043302 85 53 2.0 7.0 0.00 0.00 0.00 49 1009.0
20260905043021 86 32 3.0 4.0 0.00 0.00 0.00 49 1008.9
20260905042514 86 57 1.0 6.0 0.00 0.00 0.00 49 1009.0
20260905041749 86 39 3.0 5.0 0.00 0.00 0.00 48 1009.0
20260905041246 86 27 1.0 6.0 0.00 0.00 0.00 48 1009.0
20260905040742 86 37 3.0 4.0 0.00 0.00 0.00 48 1009.2
20260905040237 87 35 2.0 7.0 0.00 0.00 0.00 46 1009.0
20260905035733 87 30 3.0 4.0 0.00 0.00 0.00 44 1009.0
20260905035230 87 62 3.0 5.0 0.00 0.00 0.00 43 1009.1
20260905034726 88 77 0.0 4.0 0.00 0.00 0.00 42 1008.8
20260905034221 88 85 4.0 5.0 0.00 0.00 0.00 41 1009.0
20260905033718 89 95 3.0 6.0 0.00 0.00 0.00 39 1008.6
20260905033214 89 74 3.0 5.0 0.00 0.00 0.00 36 1008.6
20260905032710 89 92 3.0 10.0 0.00 0.00 0.00 37 1008.3
20260905032206 89 107 2.0 4.0 0.00 0.00 0.00 35 1008.3
20260905031702 89 144 3.0 4.0 0.00 0.00 0.00 35 1008.2
20260905031158 89 135 0.0 3.0 0.00 0.00 0.00 35 1008.2
20260905030654 89 134 2.0 3.0 0.00 0.00 0.00 34 1008.0
20260905030149 89 122 1.0 3.0 0.00 0.00 0.00 34 1008.1
20260905025645 89 146 0.0 4.0 0.00 0.00 0.00 34 1008.0
20260905025141 89 139 2.0 3.0 0.00 0.00 0.00 34 1008.0
20260905024859 89 150 0.0 4.0 0.00 0.00 0.00 34 1007.7
20260905024133 90 123 2.0 3.0 0.00 0.00 0.00 34 1007.9
20260905023629 90 129 2.0 3.0 0.00 0.00 0.00 33 1007.5
20260905023125 90 128 2.0 2.0 0.00 0.00 0.00 33 1007.5
20260905022621 90 106 2.0 5.0 0.00 0.00 0.00 33 1007.5
20260905022117 90 185 1.0 3.0 0.00 0.00 0.00 33 1007.6
20260905021613 90 170 1.0 3.0 0.00 0.00 0.00 33 1007.5
20260905021109 90 152 2.0 4.0 0.00 0.00 0.00 32 1007.5
20260905020606 90 190 3.0 4.0 0.00 0.00 0.00 32 1007.4
20260905015557 91 176 4.0 6.0 0.00 0.00 0.00 32 1007.4
20260905015054 91 175 4.0 6.0 0.00 0.00 0.00 32 1007.3
20260905015043 91 151 2.0 8.0 0.00 0.00 0.00 32 1007.3
20260905014306 91 180 1.0 9.0 0.00 0.00 0.00 32 1007.2
20260905013541 92 161 3.0 7.0 0.00 0.00 0.00 32 1007.2
20260905013037 92 178 2.0 6.0 0.00 0.00 0.00 32 1007.0
20260905012533 92 183 3.0 9.0 0.00 0.00 0.00 32 1007.2
20260905012029 92 164 5.0 10.0 0.00 0.00 0.00 32 1007.2
20260905012015 92 168 10.0 14.0 0.00 0.00 0.00 32 1007.1
20260905011021 92 177 4.0 10.0 0.00 0.00 0.00 32 1007.1
20260905010517 93 170 7.0 10.0 0.00 0.00 0.00 32 1007.1
20260905010013 93 159 4.0 8.0 0.00 0.00 0.00 32 1007.0
20260905005509 93 199 5.0 11.0 0.00 0.00 0.00 32 1007.0
20260905005225 93 162 7.0 11.0 0.00 0.00 0.00 32 1006.9
20260905004501 93 178 7.0 10.0 0.00 0.00 0.00 31 1007.0
20260905004220 93 201 6.0 11.0 0.00 0.00 0.00 32 1007.1
20260905003453 92 175 6.0 12.0 0.00 0.00 0.00 33 1007.1
20260905002949 92 175 7.0 10.0 0.00 0.00 0.00 33 1007.0
20260905002445 92 171 9.0 13.0 0.00 0.00 0.00 34 1007.0
20260905001941 93 178 9.0 16.0 0.00 0.00 0.00 33 1006.9
20260905001437 93 176 8.0 10.0 0.00 0.00 0.00 32 1006.8
20260905000933 94 281 2.0 8.0 0.00 0.00 0.00 32 1006.6
20260905000429 93 182 3.0 9.0 0.00 0.00 0.00 32 1006.8
20260904235925 93 204 8.0 16.0 0.00 0.00 0.00 31 1006.4
20260904235421 93 208 2.0 13.0 0.00 0.00 0.00 31 1006.7
20260904234917 93 183 5.0 12.0 0.00 0.00 0.00 31 1006.7
20260904234413 93 210 7.0 11.0 0.00 0.00 0.00 31 1006.7
20260904233909 93 145 9.0 12.0 0.00 0.00 0.00 30 1006.8
20260904233405 93 205 10.0 15.0 0.00 0.00 0.00 31 1006.6
20260904232901 93 172 15.0 20.0 0.00 0.00 0.00 31 1006.8
20260904232619 94 195 6.0 13.0 0.00 0.00 0.00 30 1006.8
20260904231853 93 208 3.0 15.0 0.00 0.00 0.00 31 1006.9
20260904231349 94 189 6.0 14.0 0.00 0.00 0.00 30 1006.8
20260904231337 92 127 3.0 7.0 0.00 0.00 0.00 31 1007.1
20260904230341 93 145 8.0 17.0 0.00 0.00 0.00 31 1007.1
20260904225837 93 167 13.0 13.0 0.00 0.00 0.00 31 1006.9
20260904225556 93 176 4.0 13.0 0.00 0.00 0.00 30 1007.1
20260904225054 93 168 6.0 11.0 0.00 0.00 0.00 32 1007.2
20260904224326 93 152 8.0 15.0 0.00 0.00 0.00 31 1007.0
20260904223822 93 209 14.0 17.0 0.00 0.00 0.00 33 1007.1
20260904223318 92 123 5.0 14.0 0.00 0.00 0.00 34 1007.2
20260904222814 93 136 11.0 22.0 0.00 0.00 0.00 34 1007.3
20260904222533 93 163 11.0 13.0 0.00 0.00 0.00 33 1007.3
20260904221806 93 113 8.0 11.0 0.00 0.00 0.00 32 1007.2
20260904221524 93 155 6.0 18.0 0.00 0.00 0.00 34 1007.2
20260904220758 93 159 6.0 10.0 0.00 0.00 0.00 34 1007.4
20260904220254 94 153 9.0 16.0 0.00 0.00 0.00 34 1007.4
20260904215750 93 132 4.0 10.0 0.00 0.00 0.00 34 1007.4
20260904215246 93 265 2.0 6.0 0.00 0.00 0.00 34 1007.4
20260904215003 92 27 5.0 11.0 0.00 0.00 0.00 33 1007.7
20260904214237 93 144 4.0 11.0 0.00 0.00 0.00 34 1007.6
20260904213733 92 102 4.0 12.0 0.00 0.00 0.00 34 1008.0
20260904213229 92 186 7.0 9.0 0.00 0.00 0.00 34 1007.6
20260904212725 92 188 4.0 14.0 0.00 0.00 0.00 35 1007.7
20260904212221 93 173 4.0 10.0 0.00 0.00 0.00 33 1007.7
20260904211717 92 176 9.0 12.0 0.00 0.00 0.00 34 1007.7
20260904211213 92 156 2.0 11.0 0.00 0.00 0.00 33 1008.0
20260904210931 92 88 2.0 8.0 0.00 0.00 0.00 33 1008.0
20260904210205 92 132 2.0 6.0 0.00 0.00 0.00 33 1008.1
20260904205701 91 268 2.0 8.0 0.00 0.00 0.00 32 1008.2
20260904205157 91 181 0.0 6.0 0.00 0.00 0.00 32 1008.2
20260904205147 91 189 6.0 11.0 0.00 0.00 0.00 33 1008.5
20260904204149 91 151 7.0 15.0 0.00 0.00 0.00 34 1008.3
20260904203645 92 152 11.0 16.0 0.00 0.00 0.00 36 1008.1
20260904203141 91 89 11.0 12.0 0.00 0.00 0.00 37 1008.3
20260904202638 91 33 5.0 11.0 0.00 0.00 0.00 39 1008.6
20260904202133 91 38 8.0 11.0 0.00 0.00 0.00 38 1008.5
20260904201850 90 263 3.0 6.0 0.00 0.00 0.00 38 1008.7
20260904201125 90 182 4.0 9.0 0.00 0.00 0.00 38 1008.9
20260904200846 91 171 19.0 19.0 0.00 0.00 0.00 37 1008.8
20260904200117 90 103 3.0 10.0 0.00 0.00 0.00 39 1008.9
20260904195614 90 159 1.0 7.0 0.00 0.00 0.00 41 1009.0
20260904195110 90 171 4.0 12.0 0.00 0.00 0.00 41 1009.0
20260904194606 90 164 3.0 7.0 0.00 0.00 0.00 40 1009.2
20260904194102 90 167 1.0 5.0 0.00 0.00 0.00 41 1009.4
20260904193558 90 104 4.0 10.0 0.00 0.00 0.00 42 1009.2
20260904193054 89 23 3.0 12.0 0.00 0.00 0.00 42 1009.6
20260904192550 88 115 2.0 4.0 0.00 0.00 0.00 40 1009.6
20260904192046 89 53 6.0 12.0 0.00 0.00 0.00 40 1009.7
20260904191805 89 77 7.0 12.0 0.00 0.00 0.00 40 1009.7
20260904191038 89 119 4.0 15.0 0.00 0.00 0.00 40 1009.8
20260904190534 88 302 2.0 4.0 0.00 0.00 0.00 41 1009.8
20260904190253 88 262 2.0 10.0 0.00 0.00 0.00 42 1010.0
20260904185526 88 159 4.0 12.0 0.00 0.00 0.00 42 1010.0
20260904185022 87 54 1.0 8.0 0.00 0.00 0.00 43 1010.3
20260904184742 89 88 7.0 12.0 0.00 0.00 0.00 44 1010.3
20260904184013 87 94 6.0 11.0 0.00 0.00 0.00 47 1010.3
20260904183510 87 137 3.0 11.0 0.00 0.00 0.00 47 1010.4
20260904183225 87 164 5.0 7.0 0.00 0.00 0.00 48 1010.4
20260904182501 88 202 6.0 11.0 0.00 0.00 0.00 47 1010.4
20260904181958 87 347 0.0 7.0 0.00 0.00 0.00 46 1010.5
20260904181454 87 95 5.0 11.0 0.00 0.00 0.00 47 1010.8
20260904181441 87 197 6.0 6.0 0.00 0.00 0.00 47 1010.9
20260904180446 86 171 2.0 6.0 0.00 0.00 0.00 49 1010.8
20260904175941 87 147 5.0 8.0 0.00 0.00 0.00 48 1010.8
20260904175438 86 98 6.0 6.0 0.00 0.00 0.00 48 1011.0
20260904174933 87 113 6.0 9.0 0.00 0.00 0.00 50 1010.9
20260904174651 85 118 4.0 6.0 0.00 0.00 0.00 51 1011.2
20260904173925 85 137 6.0 9.0 0.00 0.00 0.00 52 1011.3
20260904173421 85 160 5.0 10.0 0.00 0.00 0.00 52 1011.2
20260904173140 84 68 4.0 9.0 0.00 0.00 0.00 53 1011.5
20260904172413 86 197 9.0 11.0 0.00 0.00 0.00 52 1011.3
20260904171909 84 261 3.0 8.0 0.00 0.00 0.00 55 1011.6
20260904171405 84 219 3.0 8.0 0.00 0.00 0.00 55 1011.4
20260904170901 84 207 11.0 11.0 0.00 0.00 0.00 54 1011.5
20260904170357 84 157 3.0 10.0 0.00 0.00 0.00 55 1011.6
20260904165854 85 105 6.0 7.0 0.00 0.00 0.00 54 1011.2
20260904165350 83 156 3.0 4.0 0.00 0.00 0.00 55 1011.4
20260904164846 83 177 2.0 5.0 0.00 0.00 0.00 55 1011.7
20260904164606 84 163 5.0 7.0 0.00 0.00 0.00 54 1011.4
20260904163838 84 101 5.0 7.0 0.00 0.00 0.00 53 1011.4
20260904163334 83 195 4.0 5.0 0.00 0.00 0.00 55 1011.4
20260904162830 83 187 2.0 10.0 0.00 0.00 0.00 55 1011.3
20260904162326 84 160 4.0 8.0 0.00 0.00 0.00 55 1011.3
20260904161822 84 228 2.0 4.0 0.00 0.00 0.00 53 1011.3
20260904161318 82 183 2.0 3.0 0.00 0.00 0.00 56 1011.3
20260904160814 81 272 2.0 4.0 0.00 0.00 0.00 58 1011.7
20260904160803 82 155 5.0 6.0 0.00 0.00 0.00 59 1011.5
20260904155806 82 133 3.0 5.0 0.00 0.00 0.00 59 1011.5
20260904155302 81 108 6.0 6.0 0.00 0.00 0.00 60 1011.4
20260904154757 81 129 0.0 5.0 0.00 0.00 0.00 60 1011.3
20260904154253 82 112 6.0 9.0 0.00 0.00 0.00 59 1011.5
20260904154013 81 100 6.0 8.0 0.00 0.00 0.00 60 1011.4
20260904153245 81 85 6.0 10.0 0.00 0.00 0.00 60 1011.5
20260904152741 80 151 3.0 9.0 0.00 0.00 0.00 61 1011.4
20260904152237 81 138 4.0 8.0 0.00 0.00 0.00 61 1011.4
20260904151733 80 141 4.0 5.0 0.00 0.00 0.00 62 1011.4
20260904151453 81 135 2.0 8.0 0.00 0.00 0.00 62 1011.3
20260904150725 81 141 7.0 7.0 0.00 0.00 0.00 63 1011.2
20260904150221 81 100 4.0 9.0 0.00 0.00 0.00 63 1011.3
20260904145717 81 109 2.0 9.0 0.00 0.00 0.00 62 1011.1
20260904145213 81 111 6.0 8.0 0.00 0.00 0.00 63 1011.2
20260904144709 81 200 3.0 5.0 0.00 0.00 0.00 64 1011.4
20260904144205 81 178 4.0 5.0 0.00 0.00 0.00 63 1011.3
20260904143923 81 169 2.0 4.0 0.00 0.00 0.00 64 1011.3
20260904143157 81 168 0.0 3.0 0.00 0.00 0.00 63 1011.3
20260904142653 80 228 1.0 3.0 0.00 0.00 0.00 64 1011.2
20260904142149 79 164 0.0 3.0 0.00 0.00 0.00 67 1011.1
20260904141645 79 233 2.0 4.0 0.00 0.00 0.00 67 1011.3
20260904141141 79 258 1.0 4.0 0.00 0.00 0.00 68 1011.0
20260904140637 79 251 2.0 4.0 0.00 0.00 0.00 67 1010.8
20260904140133 78 284 2.0 2.0 0.00 0.00 0.00 69 1011.1
20260904135629 78 241 0.0 3.0 0.00 0.00 0.00 70 1011.2
20260904135125 78 316 2.0 4.0 0.00 0.00 0.00 68 1011.1
20260904134621 77 91 2.0 2.0 0.00 0.00 0.00 70 1011.1
20260904134339 77 88 4.0 5.0 0.00 0.00 0.00 70 1010.8
20260904133613 77 77 2.0 5.0 0.00 0.00 0.00 70 1010.9
20260904133109 77 95 0.0 3.0 0.00 0.00 0.00 70 1010.7
20260904132605 76 69 2.0 4.0 0.00 0.00 0.00 71 1010.6
20260904132101 76 130 0.0 4.0 0.00 0.00 0.00 71 1010.6
20260904131557 76 342 1.0 7.0 0.00 0.00 0.00 71 1010.6
20260904131053 76 316 0.0 3.0 0.00 0.00 0.00 72 1010.4
20260904130549 76 125 3.0 7.0 0.00 0.00 0.00 72 1010.2
20260904130046 76 76 1.0 5.0 0.00 0.00 0.00 72 1010.1
20260904125542 76 63 2.0 6.0 0.00 0.00 0.00 72 1010.1
20260904125038 76 119 0.0 4.0 0.00 0.00 0.00 72 1009.8
20260904124533 77 26 2.0 4.0 0.00 0.00 0.00 72 1009.8
20260904124030 77 68 0.0 5.0 0.00 0.00 0.00 72 1009.7
20260904123525 77 108 2.0 3.0 0.00 0.00 0.00 72 1009.4
20260904123022 77 332 1.0 3.0 0.00 0.00 0.00 73 1009.3
20260904122517 76 79 2.0 3.0 0.00 0.00 0.00 73 1009.2
20260904122014 76 194 1.0 4.0 0.00 0.00 0.00 73 1009.3
20260904121733 76 86 3.0 3.0 0.00 0.00 0.00 73 1009.3
20260904121005 76 6 2.0 4.0 0.00 0.00 0.00 73 1009.3
20260904120501 76 161 1.0 2.0 0.00 0.00 0.00 73 1009.2
20260904115957 77 94 2.0 3.0 0.00 0.00 0.00 73 1009.3
20260904115453 76 91 3.0 4.0 0.00 0.00 0.00 73 1009.2
20260904114949 76 24 2.0 3.0 0.00 0.00 0.00 73 1009.1
20260904114445 76 136 1.0 3.0 0.00 0.00 0.00 72 1009.3
20260904113941 77 7 0.0 2.0 0.00 0.00 0.00 72 1009.2
20260904113437 77 306 0.0 3.0 0.00 0.00 0.00 72 1009.2
20260904112933 77 83 2.0 5.0 0.00 0.00 0.00 72 1008.8
20260904112430 76 120 2.0 3.0 0.00 0.00 0.00 73 1009.1
20260904111925 76 89 2.0 3.0 0.00 0.00 0.00 74 1009.1
20260904111421 76 343 0.0 1.0 0.00 0.00 0.00 75 1009.4
20260904110917 76 215 0.0 2.0 0.00 0.00 0.00 75 1009.0
20260904110413 75 34 2.0 2.0 0.00 0.00 0.00 75 1009.1
20260904110131 75 19 2.0 2.0 0.00 0.00 0.00 77 1009.2
20260904105629 74 255 0.0 0.0 0.00 0.00 0.00 78 1009.2
20260904104901 74 255 0.0 0.0 0.00 0.00 0.00 78 1009.3
20260904104357 74 255 0.0 0.0 0.00 0.00 0.00 78 1009.4
20260904103853 74 255 0.0 0.0 0.00 0.00 0.00 78 1009.3
20260904103349 74 255 0.0 1.0 0.00 0.00 0.00 78 1009.4
20260904102845 74 275 0.0 2.0 0.00 0.00 0.00 79 1009.4
20260904102602 74 243 0.0 2.0 0.00 0.00 0.00 78 1009.1
20260904101837 74 256 0.0 2.0 0.00 0.00 0.00 78 1009.3
20260904101333 74 296 2.0 4.0 0.00 0.00 0.00 78 1009.4
20260904100829 74 281 2.0 2.0 0.00 0.00 0.00 78 1009.4
20260904100325 74 269 0.0 2.0 0.00 0.00 0.00 78 1009.4
20260904095821 74 313 2.0 4.0 0.00 0.00 0.00 77 1009.3
20260904095317 75 253 0.0 1.0 0.00 0.00 0.00 76 1008.9
20260904095037 75 339 2.0 2.0 0.00 0.00 0.00 76 1008.9
20260904094309 75 290 0.0 1.0 0.00 0.00 0.00 76 1009.2
20260904093805 75 322 0.0 3.0 0.00 0.00 0.00 76 1009.3
20260904093301 76 315 0.0 1.0 0.00 0.00 0.00 75 1009.2
20260904092757 76 61 1.0 3.0 0.00 0.00 0.00 74 1009.1
20260904092253 75 253 1.0 1.0 0.00 0.00 0.00 75 1009.0
20260904091749 75 315 0.0 1.0 0.00 0.00 0.00 75 1009.0
20260904091245 76 265 1.0 1.0 0.00 0.00 0.00 74 1009.2
20260904090741 76 338 0.0 2.0 0.00 0.00 0.00 73 1009.2
20260904090238 76 277 3.0 4.0 0.00 0.00 0.00 73 1009.1
20260904085734 76 297 0.0 2.0 0.00 0.00 0.00 72 1009.1
20260904085230 76 275 1.0 3.0 0.00 0.00 0.00 72 1009.1
20260904084726 76 356 2.0 3.0 0.00 0.00 0.00 72 1009.2
20260904084222 78 287 3.0 4.0 0.00 0.00 0.00 69 1008.8
20260904083718 78 93 2.0 4.0 0.00 0.00 0.00 67 1008.8
20260904083435 78 93 3.0 4.0 0.00 0.00 0.00 68 1009.1
20260904082710 78 137 0.0 2.0 0.00 0.00 0.00 68 1009.0
20260904082206 79 107 2.0 3.0 0.00 0.00 0.00 67 1009.1
20260904081702 79 116 2.0 4.0 0.00 0.00 0.00 67 1008.8
20260904081158 79 153 1.0 3.0 0.00 0.00 0.00 67 1009.1
20260904080914 79 87 2.0 4.0 0.00 0.00 0.00 67 1009.0
20260904080151 79 85 3.0 3.0 0.00 0.00 0.00 67 1009.1
20260904075646 78 97 4.0 4.0 0.00 0.00 0.00 67 1009.3
20260904075142 78 92 2.0 3.0 0.00 0.00 0.00 68 1009.2
20260904074638 78 89 0.0 1.0 0.00 0.00 0.00 69 1009.3
20260904074133 77 343 0.0 1.0 0.00 0.00 0.00 70 1009.2
20260904073629 78 291 0.0 2.0 0.00 0.00 0.00 69 1009.5
20260904073618 78 322 0.0 1.0 0.00 0.00 0.00 68 1009.3
20260904072621 78 124 0.0 1.0 0.00 0.00 0.00 67 1009.1
20260904072117 78 183 1.0 2.0 0.00 0.00 0.00 67 1009.1
20260904071613 78 183 2.0 2.0 0.00 0.00 0.00 67 1009.4
20260904071109 78 157 0.0 2.0 0.00 0.00 0.00 68 1009.3
20260904070605 78 164 0.0 2.0 0.00 0.00 0.00 68 1009.5
20260904070101 78 144 0.0 1.0 0.00 0.00 0.00 67 1009.2
20260904065557 78 283 0.0 0.0 0.00 0.00 0.00 68 1009.6
20260904065053 78 283 0.0 0.0 0.00 0.00 0.00 67 1009.6
20260904064549 78 242 0.0 1.0 0.00 0.00 0.00 67 1009.5
20260904064045 78 135 0.0 0.0 0.00 0.00 0.00 67 1009.6
20260904063541 79 131 0.0 1.0 0.00 0.00 0.00 66 1009.5
20260904063037 79 284 0.0 2.0 0.00 0.00 0.00 66 1009.4
20260904062533 79 287 1.0 2.0 0.00 0.00 0.00 65 1009.6
20260904062029 79 333 1.0 2.0 0.00 0.00 0.00 66 1009.3
20260904061525 79 345 1.0 3.0 0.00 0.00 0.00 66 1009.5
20260904061245 79 304 0.0 2.0 0.00 0.00 0.00 66 1009.5
20260904060738 79 309 1.0 2.0 0.00 0.00 0.00 66 1009.2
20260904060505 79 299 2.0 5.0 0.00 0.00 0.00 65 1009.4
20260904055509 79 301 1.0 4.0 0.00 0.00 0.00 65 1009.4
20260904055005 79 299 1.0 3.0 0.00 0.00 0.00 65 1009.4
20260904054725 79 276 1.0 2.0 0.00 0.00 0.00 65 1009.3
20260904053958 79 269 0.0 2.0 0.00 0.00 0.00 65 1009.3
20260904053453 79 249 0.0 2.0 0.00 0.00 0.00 64 1009.1
20260904052949 80 305 1.0 2.0 0.00 0.00 0.00 64 1009.2
20260904052445 80 282 1.0 2.0 0.00 0.00 0.00 63 1009.4
20260904051941 81 246 0.0 2.0 0.00 0.00 0.00 62 1009.0
20260904051437 80 224 0.0 1.0 0.00 0.00 0.00 62 1009.2
20260904050933 81 293 0.0 1.0 0.00 0.00 0.00 62 1009.3
20260904050430 81 269 0.0 2.0 0.00 0.00 0.00 62 1009.4
20260904045926 81 62 1.0 2.0 0.00 0.00 0.00 62 1009.5
20260904045421 81 276 2.0 3.0 0.00 0.00 0.00 61 1009.7